START_TIME,STEP,MOV.,AL01,t_acc.,AL02,t_acc.,E37,t_acc.,H21,t_acc.
1979-07-15 09:00:34.530 ,0,0,1.,24.0,0.,24.0,3.,24.0,0.,24.0
1979-07-15 09:00:58.530 ,0,1,0.,24.0,0.,24.0,9.,24.0,0.,24.0
1979-07-15 09:01:22.530 ,0,0,0.,24.0,0.,24.0,8.,24.0,0.,24.0
1979-07-15 09:01:46.530 ,1,1,1.,24.0,1.,24.0,8.,24.0,0.,24.0
1979-07-15 09:02:10.530 ,1,0,2.,24.0,0.,24.0,11.,24.0,0.,24.0
1979-07-15 09:02:34.530 ,2,1,2.,24.0,0.,24.0,4.,24.0,0.,24.0
1979-07-15 09:02:58.530 ,2,0,0.,24.0,0.,24.0,11.,24.0,0.,24.0
1979-07-15 09:03:22.530 ,3,1,3.,24.0,0.,24.0,8.,24.0,0.,24.0
1979-07-15 09:03:46.530 ,3,0,1.,24.0,0.,24.0,8.,24.0,0.,24.0
1979-07-15 09:04:10.530 ,4,1,1.,24.0,0.,24.0,10.,24.0,0.,24.0
1979-07-15 09:04:34.530 ,4,0,1.,24.0,0.,24.0,19.,24.0,0.,24.0
1979-07-15 09:04:58.530 ,5,1,1.,24.0,0.,24.0,11.,24.0,0.,24.0
1979-07-15 09:05:22.530 ,5,0,3.,24.0,0.,24.0,12.,24.0,0.,24.0
1979-07-15 09:05:46.530 ,6,1,3.,24.0,0.,24.0,14.,24.0,0.,24.0
1979-07-15 09:06:10.530 ,6,0,1.,24.0,0.,24.0,9.,24.0,0.,24.0
1979-07-15 09:06:34.530 ,7,0,9.,24.0,0.,24.0,5.,24.0,0.,24.0
1979-07-15 09:06:58.530 ,7,0,33.,24.0,0.,24.0,8.,24.0,0.,24.0
1979-07-15 09:07:22.530 ,5,1,15.,24.0,1.,24.0,6.,24.0,0.,24.0
1979-07-15 09:07:46.530 ,1,1,1.,24.0,0.,24.0,11.,24.0,0.,24.0
1979-07-15 09:08:10.530 ,2,1,0.,24.0,0.,24.0,8.,24.0,0.,24.0
1979-07-15 09:08:34.530 ,6,1,3.,24.0,0.,24.0,8.,24.0,0.,24.0
1979-07-15 09:08:58.530 ,5,1,10.,24.0,0.,24.0,9.,24.0,0.,24.0
1979-07-15 09:09:22.530 ,1,1,0.,24.0,0.,24.0,5.,24.0,0.,24.0
1979-07-15 09:09:46.530 ,2,1,1.,24.0,0.,24.0,9.,24.0,0.,24.0
1979-07-15 09:10:10.530 ,6,1,1.,24.0,0.,24.0,7.,24.0,0.,24.0
1979-07-15 09:10:34.530 ,5,1,19.,24.0,0.,24.0,12.,24.0,0.,24.0
1979-07-15 09:10:58.530 ,1,1,2.,24.0,1.,24.0,7.,24.0,0.,24.0
1979-07-15 09:11:22.530 ,2,1,2.,24.0,0.,24.0,7.,24.0,0.,24.0
1979-07-15 09:11:46.530 ,6,1,0.,24.0,1.,24.0,6.,24.0,0.,24.0
1979-07-15 09:12:10.530 ,5,1,12.,24.0,0.,24.0,10.,24.0,0.,24.0
1979-07-15 09:12:34.530 ,1,1,0.,24.0,1.,24.0,5.,24.0,0.,24.0
1979-07-15 09:12:58.530 ,2,1,0.,24.0,0.,24.0,7.,24.0,0.,24.0
1979-07-15 09:13:22.530 ,6,1,0.,24.0,0.,24.0,5.,24.0,0.,24.0
1979-07-15 09:13:46.530 ,5,1,16.,24.0,0.,24.0,6.,24.0,0.,24.0
1979-07-15 09:14:10.530 ,1,1,3.,24.0,0.,24.0,5.,24.0,0.,24.0
1979-07-15 09:14:34.530 ,2,1,0.,24.0,0.,24.0,12.,24.0,0.,24.0
1979-07-15 09:14:58.530 ,6,1,1.,24.0,1.,24.0,7.,24.0,0.,24.0
1979-07-15 09:15:22.530 ,5,1,11.,24.0,0.,24.0,5.,24.0,0.,24.0
1979-07-15 09:15:46.530 ,1,1,0.,24.0,1.,24.0,10.,24.0,0.,24.0
1979-07-15 09:16:10.530 ,2,1,1.,24.0,0.,24.0,10.,24.0,0.,24.0
1979-07-15 09:16:34.530 ,6,1,0.,24.0,0.,24.0,6.,24.0,0.,24.0
1979-07-15 09:16:58.530 ,5,1,13.,24.0,1.,24.0,5.,24.0,0.,24.0
1979-07-15 09:17:22.530 ,1,1,0.,24.0,0.,24.0,9.,24.0,0.,24.0
1979-07-15 09:17:46.530 ,0,0,1.,24.0,0.,24.0,13.,24.0,0.,24.0
1979-07-15 09:18:10.530 ,0,0,0.,24.0,1.,24.0,7.,24.0,0.,24.0
1979-07-15 09:18:34.530 ,5,1,13.,24.0,2.,24.0,15.,24.0,0.,24.0
1979-07-15 09:18:58.530 ,5,0,1.,24.0,2.,24.0,6.,24.0,0.,24.0
1979-07-15 09:19:22.530 ,4,1,1.,24.0,0.,24.0,6.,24.0,0.,24.0
1979-07-15 09:19:46.530 ,4,0,1.,24.0,0.,24.0,9.,24.0,0.,24.0
1979-07-15 09:20:10.530 ,3,1,2.,24.0,0.,24.0,6.,24.0,0.,24.0
1979-07-15 09:20:34.530 ,3,0,1.,24.0,0.,24.0,4.,24.0,0.,24.0
1979-07-15 09:20:58.530 ,2,1,1.,24.0,0.,24.0,7.,24.0,0.,24.0
1979-07-15 09:21:22.530 ,2,0,1.,24.0,1.,24.0,8.,24.0,0.,24.0
1979-07-15 09:21:46.530 ,1,1,1.,24.0,0.,24.0,9.,24.0,0.,24.0
1979-07-15 09:22:10.530 ,1,0,0.,24.0,1.,24.0,11.,24.0,0.,24.0
1979-07-15 09:22:34.530 ,0,1,1.,24.0,0.,24.0,7.,24.0,0.,24.0
1979-07-15 09:22:58.530 ,0,0,1.,24.0,0.,24.0,15.,24.0,0.,24.0
1979-07-15 09:23:22.530 ,0,1,1.,24.0,0.,24.0,8.,24.0,0.,24.0
1979-07-15 09:23:46.530 ,0,0,0.,24.0,0.,24.0,8.,24.0,0.,24.0
1979-07-15 09:24:10.530 ,1,1,2.,24.0,0.,24.0,6.,24.0,0.,24.0
1979-07-15 09:24:34.530 ,1,0,2.,24.0,0.,24.0,7.,24.0,0.,24.0
1979-07-15 09:24:58.530 ,2,1,1.,24.0,1.,24.0,12.,24.0,0.,24.0
1979-07-15 09:25:22.530 ,2,0,1.,24.0,0.,24.0,10.,24.0,0.,24.0
1979-07-15 09:25:46.530 ,3,1,3.,24.0,1.,24.0,5.,24.0,0.,24.0
1979-07-15 09:26:10.530 ,3,0,3.,24.0,0.,24.0,5.,24.0,0.,24.0
1979-07-15 09:26:34.530 ,4,1,0.,24.0,0.,24.0,8.,24.0,0.,24.0
1979-07-15 09:26:58.530 ,4,0,0.,24.0,1.,24.0,8.,24.0,0.,24.0
1979-07-15 09:27:22.530 ,5,1,2.,24.0,0.,24.0,5.,24.0,0.,24.0
1979-07-15 09:27:46.530 ,5,0,2.,24.0,1.,24.0,9.,24.0,0.,24.0
1979-07-15 09:28:10.530 ,6,1,3.,24.0,2.,24.0,3.,24.0,0.,24.0
1979-07-15 09:28:34.530 ,6,0,1.,24.0,0.,24.0,5.,24.0,0.,24.0
1979-07-15 09:28:58.530 ,7,1,6.,24.0,0.,24.0,7.,24.0,0.,24.0
1979-07-15 09:29:22.530 ,7,0,34.,24.0,0.,24.0,3.,24.0,0.,24.0
1979-07-15 09:29:46.530 ,7,1,30.,24.0,0.,24.0,5.,24.0,0.,24.0
1979-07-15 09:30:10.530 ,7,0,28.,24.0,0.,24.0,4.,24.0,0.,24.0
1979-07-15 09:30:34.530 ,6,1,20.,24.0,0.,24.0,6.,24.0,0.,24.0
1979-07-15 09:30:58.530 ,6,0,0.,24.0,0.,24.0,5.,24.0,0.,24.0
1979-07-15 09:31:22.530 ,5,1,0.,24.0,0.,24.0,8.,24.0,0.,24.0
1979-07-15 09:31:46.530 ,5,0,0.,24.0,2.,24.0,5.,24.0,0.,24.0
1979-07-15 09:32:10.530 ,4,1,2.,24.0,0.,24.0,6.,24.0,0.,24.0
1979-07-15 09:32:34.530 ,4,0,2.,24.0,0.,24.0,5.,24.0,0.,24.0
1979-07-15 09:32:58.530 ,3,1,1.,24.0,1.,24.0,3.,24.0,0.,24.0
1979-07-15 09:33:22.530 ,3,0,1.,24.0,1.,24.0,5.,24.0,0.,24.0
1979-07-15 09:33:46.530 ,2,1,2.,24.0,0.,24.0,7.,24.0,0.,24.0
1979-07-15 09:34:10.530 ,2,0,0.,24.0,0.,24.0,8.,24.0,0.,24.0
1979-07-15 09:34:34.530 ,1,1,0.,24.0,0.,24.0,5.,24.0,0.,24.0
1979-07-15 09:34:58.530 ,1,0,3.,24.0,0.,24.0,9.,24.0,0.,24.0
1979-07-15 09:35:22.530 ,0,1,1.,24.0,1.,24.0,5.,24.0,0.,24.0
1979-07-15 09:35:46.530 ,0,0,3.,24.0,0.,24.0,7.,24.0,0.,24.0
1979-07-15 09:36:10.530 ,0,1,0.,24.0,2.,24.0,8.,24.0,0.,24.0
1979-07-15 09:36:34.530 ,0,0,0.,24.0,0.,24.0,3.,24.0,0.,24.0
1979-07-15 09:36:58.530 ,1,1,0.,24.0,0.,24.0,3.,24.0,0.,24.0
1979-07-15 09:37:22.530 ,1,0,1.,24.0,0.,24.0,1.,24.0,0.,24.0
1979-07-15 09:37:46.530 ,2,1,0.,24.0,1.,24.0,11.,24.0,0.,24.0
1979-07-15 09:38:10.530 ,2,0,0.,24.0,0.,24.0,6.,24.0,0.,24.0
1979-07-15 09:38:34.530 ,3,1,2.,24.0,0.,24.0,7.,24.0,0.,24.0
1979-07-15 09:38:58.530 ,3,0,1.,24.0,0.,24.0,4.,24.0,0.,24.0
1979-07-15 09:39:22.530 ,4,1,0.,24.0,2.,24.0,3.,24.0,0.,24.0
1979-07-15 09:39:46.530 ,4,0,1.,24.0,0.,24.0,6.,24.0,0.,24.0
1979-07-15 09:40:10.530 ,5,1,0.,24.0,1.,24.0,7.,24.0,0.,24.0
1979-07-15 09:40:34.530 ,5,0,2.,24.0,0.,24.0,9.,24.0,0.,24.0
1979-07-15 09:40:58.530 ,6,1,1.,24.0,1.,24.0,7.,24.0,0.,24.0
1979-07-15 09:41:22.530 ,6,0,0.,24.0,1.,24.0,10.,24.0,0.,24.0
1979-07-15 09:41:46.530 ,7,1,3.,24.0,0.,24.0,9.,24.0,0.,24.0
1979-07-15 09:42:10.530 ,7,0,36.,24.0,0.,24.0,7.,24.0,0.,24.0
1979-07-15 09:42:34.530 ,7,1,27.,24.0,0.,24.0,4.,24.0,0.,24.0
1979-07-15 09:42:58.530 ,7,0,24.,24.0,0.,24.0,5.,24.0,0.,24.0
1979-07-15 09:43:22.530 ,6,1,27.,24.0,0.,24.0,8.,24.0,0.,24.0
1979-07-15 09:43:46.530 ,6,0,1.,24.0,0.,24.0,6.,24.0,0.,24.0
1979-07-15 09:44:10.530 ,5,1,0.,24.0,0.,24.0,4.,24.0,0.,24.0
1979-07-15 09:44:34.530 ,5,0,0.,24.0,0.,24.0,3.,24.0,0.,24.0
1979-07-15 09:44:58.530 ,4,1,0.,24.0,0.,24.0,2.,24.0,0.,24.0
1979-07-15 09:45:22.530 ,4,0,0.,24.0,1.,24.0,3.,24.0,0.,24.0
1979-07-15 09:45:46.530 ,3,1,0.,24.0,2.,24.0,6.,24.0,0.,24.0
1979-07-15 09:46:10.530 ,3,0,1.,24.0,0.,24.0,7.,24.0,0.,24.0
1979-07-15 09:46:34.530 ,2,1,0.,24.0,0.,24.0,4.,24.0,0.,24.0
1979-07-15 09:46:58.530 ,2,0,0.,24.0,0.,24.0,2.,24.0,0.,24.0
1979-07-15 09:47:22.530 ,1,1,0.,24.0,0.,24.0,5.,24.0,0.,24.0
1979-07-15 09:47:46.530 ,1,0,0.,24.0,0.,24.0,6.,24.0,0.,24.0
1979-07-15 09:48:10.530 ,0,1,0.,24.0,1.,24.0,3.,24.0,0.,24.0
1979-07-15 09:48:34.530 ,0,0,1.,24.0,0.,24.0,8.,24.0,0.,24.0
1979-07-15 09:48:58.530 ,0,1,2.,24.0,0.,24.0,6.,24.0,0.,24.0
1979-07-15 09:49:22.530 ,0,0,0.,24.0,0.,24.0,6.,24.0,0.,24.0
1979-07-15 09:49:46.530 ,1,1,2.,24.0,0.,24.0,5.,24.0,0.,24.0
1979-07-15 09:50:10.530 ,1,0,0.,24.0,1.,24.0,4.,24.0,0.,24.0
1979-07-15 09:50:34.530 ,2,1,0.,24.0,1.,24.0,6.,24.0,0.,24.0
1979-07-15 09:50:58.530 ,2,0,0.,24.0,0.,24.0,2.,24.0,0.,24.0
1979-07-15 09:51:22.530 ,3,1,0.,24.0,0.,24.0,2.,24.0,0.,24.0
1979-07-15 09:51:46.530 ,3,0,0.,24.0,0.,24.0,5.,24.0,0.,24.0
1979-07-15 09:52:10.530 ,4,1,3.,24.0,0.,24.0,2.,24.0,0.,24.0
1979-07-15 09:52:34.530 ,4,0,3.,24.0,0.,24.0,7.,24.0,0.,24.0
1979-07-15 09:52:58.530 ,5,1,0.,24.0,1.,24.0,6.,24.0,0.,24.0
1979-07-15 09:53:22.530 ,5,0,0.,24.0,1.,24.0,2.,24.0,0.,24.0
1979-07-15 09:53:46.530 ,6,1,1.,24.0,1.,24.0,5.,24.0,0.,24.0
1979-07-15 09:54:10.530 ,6,0,0.,24.0,0.,24.0,4.,24.0,0.,24.0
1979-07-15 09:54:34.530 ,7,0,9.,24.0,1.,24.0,6.,24.0,0.,24.0
1979-07-15 09:54:58.530 ,7,0,26.,24.0,0.,24.0,6.,24.0,0.,24.0
1979-07-15 09:55:22.530 ,5,1,17.,24.0,0.,24.0,8.,24.0,0.,24.0
1979-07-15 09:55:46.530 ,1,1,1.,24.0,0.,24.0,10.,24.0,0.,24.0
1979-07-15 09:56:10.530 ,2,1,0.,24.0,0.,24.0,5.,24.0,0.,24.0
1979-07-15 09:56:34.530 ,6,1,0.,24.0,0.,24.0,4.,24.0,0.,24.0
1979-07-15 09:56:58.530 ,5,1,11.,24.0,0.,24.0,5.,24.0,0.,24.0
1979-07-15 09:57:22.530 ,1,1,1.,24.0,1.,24.0,4.,24.0,0.,24.0
1979-07-15 09:57:46.530 ,2,1,0.,24.0,0.,24.0,8.,24.0,0.,24.0
1979-07-15 09:58:10.530 ,6,1,0.,24.0,2.,24.0,2.,24.0,0.,24.0
1979-07-15 09:58:34.530 ,5,1,22.,24.0,0.,24.0,3.,24.0,0.,24.0
1979-07-15 09:58:58.530 ,1,1,1.,24.0,0.,24.0,4.,24.0,0.,24.0
1979-07-15 09:59:22.530 ,2,1,1.,24.0,0.,24.0,7.,24.0,0.,24.0
1979-07-15 09:59:46.530 ,6,1,0.,24.0,0.,24.0,9.,24.0,0.,24.0
1979-07-15 10:00:10.530 ,5,1,9.,24.0,1.,24.0,4.,24.0,0.,24.0
1979-07-15 10:00:34.530 ,1,1,0.,24.0,0.,24.0,8.,24.0,0.,24.0
1979-07-15 10:00:58.530 ,2,1,0.,24.0,1.,24.0,10.,24.0,0.,24.0
1979-07-15 10:01:22.530 ,6,1,0.,24.0,0.,24.0,3.,24.0,0.,24.0
1979-07-15 10:01:46.530 ,5,1,20.,24.0,0.,24.0,6.,24.0,0.,24.0
1979-07-15 10:02:10.530 ,1,1,0.,24.0,0.,24.0,4.,24.0,0.,24.0
1979-07-15 10:02:34.530 ,2,1,0.,24.0,0.,24.0,3.,24.0,0.,24.0
1979-07-15 10:02:58.530 ,6,1,0.,24.0,0.,24.0,9.,24.0,0.,24.0
1979-07-15 10:03:22.530 ,5,1,27.,24.0,0.,24.0,3.,24.0,0.,24.0
1979-07-15 10:03:46.530 ,1,1,0.,24.0,0.,24.0,6.,24.0,0.,24.0
1979-07-15 10:04:10.530 ,2,1,0.,24.0,1.,24.0,4.,24.0,0.,24.0
1979-07-15 10:04:34.530 ,6,1,0.,24.0,0.,24.0,6.,24.0,0.,24.0
1979-07-15 10:04:58.530 ,5,1,27.,24.0,0.,24.0,5.,24.0,0.,24.0
1979-07-15 10:05:22.530 ,1,1,1.,24.0,0.,24.0,2.,24.0,0.,24.0
1979-07-15 10:05:46.530 ,0,0,0.,24.0,0.,24.0,4.,24.0,0.,24.0
1979-07-15 10:06:10.530 ,0,0,1.,24.0,0.,24.0,4.,24.0,0.,24.0
1979-07-15 10:06:34.530 ,5,1,21.,24.0,0.,24.0,3.,24.0,0.,24.0
1979-07-15 10:06:58.530 ,5,0,0.,24.0,0.,24.0,0.,24.0,0.,24.0
1979-07-15 10:07:22.530 ,4,1,2.,24.0,0.,24.0,6.,24.0,0.,24.0
1979-07-15 10:07:46.530 ,4,0,1.,24.0,1.,24.0,8.,24.0,0.,24.0
1979-07-15 10:08:10.530 ,3,1,0.,24.0,0.,24.0,1.,24.0,0.,24.0
1979-07-15 10:08:34.530 ,3,0,0.,24.0,1.,24.0,1.,24.0,0.,24.0
1979-07-15 10:08:58.530 ,2,1,0.,24.0,0.,24.0,1.,24.0,0.,24.0
1979-07-15 10:09:22.530 ,2,0,0.,24.0,1.,24.0,3.,24.0,0.,24.0
1979-07-15 10:09:46.530 ,1,1,0.,24.0,0.,24.0,3.,24.0,0.,24.0
1979-07-15 10:10:10.530 ,1,0,0.,24.0,0.,24.0,2.,24.0,0.,24.0
1979-07-15 10:10:34.530 ,0,1,0.,24.0,1.,24.0,7.,24.0,0.,24.0
1979-07-15 10:10:58.530 ,0,0,0.,24.0,0.,24.0,4.,24.0,0.,24.0
1979-07-15 10:11:22.530 ,0,1,0.,24.0,0.,24.0,1.,24.0,0.,24.0
1979-07-15 10:11:46.530 ,0,0,0.,24.0,0.,24.0,3.,24.0,0.,24.0
1979-07-15 10:12:10.530 ,1,1,0.,24.0,0.,24.0,4.,24.0,0.,24.0
1979-07-15 10:12:34.530 ,1,0,0.,24.0,0.,24.0,4.,24.0,0.,24.0
1979-07-15 10:12:58.530 ,2,1,1.,24.0,0.,24.0,2.,24.0,0.,24.0
1979-07-15 10:13:22.530 ,2,0,0.,24.0,0.,24.0,3.,24.0,0.,24.0
1979-07-15 10:13:46.530 ,3,1,1.,24.0,0.,24.0,1.,24.0,0.,24.0
1979-07-15 10:14:10.530 ,3,0,2.,24.0,1.,24.0,0.,24.0,0.,24.0
1979-07-15 10:14:34.530 ,4,1,0.,24.0,1.,24.0,0.,24.0,0.,24.0
1979-07-15 10:14:58.530 ,4,0,0.,24.0,1.,24.0,0.,24.0,0.,24.0
1979-07-15 10:15:22.530 ,5,1,0.,24.0,0.,24.0,8.,24.0,0.,24.0
1979-07-15 10:15:46.530 ,5,0,1.,24.0,0.,24.0,0.,24.0,0.,24.0
1979-07-15 10:16:10.530 ,6,1,0.,24.0,0.,24.0,4.,24.0,0.,24.0
1979-07-15 10:16:34.530 ,6,0,0.,24.0,1.,24.0,0.,24.0,0.,24.0
1979-07-15 10:16:58.530 ,7,1,9.,24.0,0.,24.0,0.,24.0,0.,24.0
1979-07-15 10:17:22.530 ,7,0,29.,24.0,0.,24.0,2.,24.0,0.,24.0
1979-07-15 10:17:46.530 ,7,1,28.,24.0,0.,24.0,2.,24.0,0.,24.0
1979-07-15 10:18:10.530 ,7,0,29.,24.0,0.,24.0,6.,24.0,0.,24.0
1979-07-15 10:18:34.530 ,6,1,25.,24.0,0.,24.0,3.,24.0,0.,24.0
1979-07-15 10:18:58.530 ,6,0,0.,24.0,1.,24.0,3.,24.0,0.,24.0
1979-07-15 10:19:22.530 ,5,1,0.,24.0,0.,24.0,4.,24.0,0.,24.0
1979-07-15 10:19:46.530 ,5,0,0.,24.0,0.,24.0,1.,24.0,0.,24.0
1979-07-15 10:20:10.530 ,4,1,0.,24.0,0.,24.0,2.,24.0,0.,24.0
1979-07-15 10:20:34.530 ,4,0,0.,24.0,1.,24.0,1.,24.0,0.,24.0
1979-07-15 10:20:58.530 ,3,1,1.,24.0,1.,24.0,1.,24.0,0.,24.0
1979-07-15 10:21:22.530 ,3,0,0.,24.0,0.,24.0,1.,24.0,0.,24.0
1979-07-15 10:21:46.530 ,2,1,1.,24.0,1.,24.0,2.,24.0,0.,24.0
1979-07-15 10:22:10.530 ,2,0,1.,24.0,1.,24.0,1.,24.0,0.,24.0
1979-07-15 10:22:34.530 ,1,1,0.,24.0,0.,24.0,1.,24.0,0.,24.0
1979-07-15 10:22:58.530 ,1,0,0.,24.0,0.,24.0,1.,24.0,0.,24.0
1979-07-15 10:23:22.530 ,0,1,0.,24.0,0.,24.0,2.,24.0,0.,24.0
1979-07-15 10:23:46.530 ,0,0,0.,24.0,0.,24.0,2.,24.0,0.,24.0
1979-07-15 10:24:10.530 ,0,1,0.,24.0,0.,24.0,2.,24.0,0.,24.0
1979-07-15 10:24:34.530 ,0,0,1.,24.0,0.,24.0,4.,24.0,0.,24.0
1979-07-15 10:24:58.530 ,1,1,1.,24.0,0.,24.0,1.,24.0,0.,24.0
1979-07-15 10:25:22.530 ,1,0,0.,24.0,1.,24.0,0.,24.0,0.,24.0
1979-07-15 10:25:46.530 ,2,1,0.,24.0,0.,24.0,1.,24.0,0.,24.0
1979-07-15 10:26:10.530 ,2,0,0.,24.0,0.,24.0,1.,24.0,0.,24.0
1979-07-15 10:26:34.530 ,3,1,3.,24.0,1.,24.0,4.,24.0,0.,24.0
1979-07-15 10:26:58.530 ,3,0,0.,24.0,0.,24.0,0.,24.0,0.,24.0
1979-07-15 10:27:22.530 ,4,1,0.,24.0,0.,24.0,2.,24.0,0.,24.0
1979-07-15 10:27:46.530 ,4,0,0.,24.0,0.,24.0,0.,24.0,0.,24.0
1979-07-15 10:28:10.530 ,5,1,2.,24.0,0.,24.0,0.,24.0,0.,24.0
1979-07-15 10:28:34.530 ,5,0,0.,24.0,0.,24.0,0.,24.0,0.,24.0
1979-07-15 10:28:58.530 ,6,1,0.,24.0,0.,24.0,1.,24.0,0.,24.0
1979-07-15 10:29:22.530 ,6,0,0.,24.0,2.,24.0,1.,24.0,0.,24.0
1979-07-15 10:29:46.530 ,7,1,9.,24.0,0.,24.0,1.,24.0,0.,24.0
1979-07-15 10:30:10.530 ,7,0,31.,24.0,0.,24.0,3.,24.0,0.,24.0
1979-07-15 10:30:34.530 ,7,1,41.,24.0,1.,24.0,1.,24.0,0.,24.0
1979-07-15 10:30:58.530 ,7,0,31.,24.0,0.,24.0,1.,24.0,0.,24.0
1979-07-15 10:31:22.530 ,6,1,24.,24.0,0.,24.0,1.,24.0,0.,24.0
1979-07-15 10:31:46.530 ,6,0,0.,24.0,0.,24.0,0.,24.0,0.,24.0
1979-07-15 10:32:10.530 ,5,1,0.,24.0,0.,24.0,2.,24.0,0.,24.0
1979-07-15 10:32:34.530 ,5,0,1.,24.0,0.,24.0,2.,24.0,0.,24.0
1979-07-15 10:32:58.530 ,4,1,1.,24.0,0.,24.0,2.,24.0,0.,24.0
1979-07-15 10:33:22.530 ,4,0,1.,24.0,1.,24.0,2.,24.0,0.,24.0
1979-07-15 10:33:46.530 ,3,1,0.,24.0,0.,24.0,2.,24.0,0.,24.0
1979-07-15 10:34:10.530 ,3,0,2.,24.0,0.,24.0,2.,24.0,0.,24.0
1979-07-15 10:34:34.530 ,2,1,0.,24.0,2.,24.0,2.,24.0,0.,24.0
1979-07-15 10:34:58.530 ,2,0,0.,24.0,0.,24.0,2.,24.0,0.,24.0
1979-07-15 10:35:22.530 ,1,1,0.,24.0,0.,24.0,1.,24.0,0.,24.0
1979-07-15 10:35:46.530 ,1,0,0.,24.0,0.,24.0,3.,24.0,0.,24.0
1979-07-15 10:36:10.530 ,0,1,0.,24.0,0.,24.0,4.,24.0,0.,24.0
1979-07-15 10:36:34.530 ,0,0,0.,24.0,0.,24.0,4.,24.0,0.,24.0
1979-07-15 10:36:58.530 ,0,1,1.,24.0,0.,24.0,2.,24.0,0.,24.0
1979-07-15 10:37:22.530 ,0,0,0.,24.0,0.,24.0,2.,24.0,0.,24.0
1979-07-15 10:37:46.530 ,1,1,0.,24.0,0.,24.0,2.,24.0,0.,24.0
1979-07-15 10:38:10.530 ,1,0,1.,24.0,0.,24.0,2.,24.0,0.,24.0
1979-07-15 10:38:34.530 ,2,1,0.,24.0,0.,24.0,1.,24.0,0.,24.0
1979-07-15 10:38:58.530 ,2,0,0.,24.0,0.,24.0,1.,24.0,0.,24.0
1979-07-15 10:39:22.530 ,3,1,0.,24.0,0.,24.0,2.,24.0,0.,24.0
1979-07-15 10:39:46.530 ,3,0,0.,24.0,0.,24.0,0.,24.0,0.,24.0
1979-07-15 10:40:10.530 ,4,1,0.,24.0,0.,24.0,2.,24.0,0.,24.0
1979-07-15 10:40:34.530 ,4,0,0.,24.0,1.,24.0,1.,24.0,0.,24.0
1979-07-15 10:40:58.530 ,5,1,1.,24.0,1.,24.0,3.,24.0,0.,24.0
1979-07-15 10:41:22.530 ,5,0,0.,24.0,0.,24.0,2.,24.0,0.,24.0
1979-07-15 10:41:46.530 ,6,1,1.,24.0,1.,24.0,1.,24.0,0.,24.0
1979-07-15 10:42:10.530 ,6,0,1.,24.0,0.,24.0,0.,24.0,0.,24.0
1979-07-15 10:42:34.530 ,7,0,8.,24.0,0.,24.0,1.,24.0,0.,24.0
1979-07-15 10:42:58.530 ,7,0,33.,24.0,0.,24.0,0.,24.0,0.,24.0
1979-07-15 10:43:22.530 ,5,1,16.,24.0,0.,24.0,8.,24.0,0.,24.0
1979-07-15 10:43:46.530 ,1,1,0.,24.0,1.,24.0,4.,24.0,0.,24.0
1979-07-15 10:44:10.530 ,2,1,1.,24.0,0.,24.0,0.,24.0,0.,24.0
1979-07-15 10:44:34.530 ,6,1,0.,24.0,1.,24.0,1.,24.0,0.,24.0
1979-07-15 10:44:58.530 ,5,1,17.,24.0,0.,24.0,5.,24.0,0.,24.0
1979-07-15 10:45:22.530 ,1,1,1.,24.0,0.,24.0,3.,24.0,0.,24.0
1979-07-15 10:45:46.530 ,2,1,0.,24.0,1.,24.0,0.,24.0,0.,24.0
1979-07-15 10:46:10.530 ,6,1,0.,24.0,0.,24.0,3.,24.0,0.,24.0
1979-07-15 10:46:34.530 ,5,1,17.,24.0,0.,24.0,4.,24.0,0.,24.0
1979-07-15 10:46:58.530 ,1,1,0.,24.0,0.,24.0,6.,24.0,0.,24.0
1979-07-15 10:47:22.530 ,2,1,1.,24.0,1.,24.0,1.,24.0,0.,24.0
1979-07-15 10:47:46.530 ,6,1,0.,24.0,0.,24.0,2.,24.0,0.,24.0
1979-07-15 10:48:10.530 ,5,1,13.,24.0,0.,24.0,0.,24.0,0.,24.0
1979-07-15 10:48:34.530 ,1,1,0.,24.0,0.,24.0,1.,24.0,0.,24.0
1979-07-15 10:48:58.530 ,2,1,1.,24.0,0.,24.0,0.,24.0,0.,24.0
1979-07-15 10:49:22.530 ,6,1,0.,24.0,0.,24.0,4.,24.0,0.,24.0
1979-07-15 10:49:46.530 ,5,1,20.,24.0,1.,24.0,1.,24.0,0.,24.0
1979-07-15 10:50:10.530 ,1,1,0.,24.0,0.,24.0,0.,24.0,0.,24.0
1979-07-15 10:50:34.530 ,2,1,0.,24.0,0.,24.0,1.,24.0,0.,24.0
1979-07-15 10:50:58.530 ,6,1,0.,24.0,0.,24.0,1.,24.0,0.,24.0
1979-07-15 10:51:22.530 ,5,1,13.,24.0,0.,24.0,6.,24.0,0.,24.0
1979-07-15 10:51:46.530 ,1,1,0.,24.0,0.,24.0,4.,24.0,0.,24.0
1979-07-15 10:52:10.530 ,2,1,0.,24.0,0.,24.0,2.,24.0,0.,24.0
1979-07-15 10:52:34.530 ,6,1,0.,24.0,1.,24.0,0.,24.0,0.,24.0
1979-07-15 10:52:58.530 ,5,1,12.,24.0,1.,24.0,2.,24.0,0.,24.0
1979-07-15 10:53:22.530 ,1,1,0.,24.0,0.,24.0,4.,24.0,0.,24.0
1979-07-15 10:53:46.530 ,0,0,1.,24.0,0.,24.0,2.,24.0,0.,24.0
1979-07-15 10:54:10.530 ,0,0,1.,24.0,0.,24.0,2.,24.0,0.,24.0
1979-07-15 10:54:34.530 ,5,1,19.,24.0,0.,24.0,0.,24.0,0.,24.0
1979-07-15 10:54:58.530 ,5,0,0.,24.0,0.,24.0,6.,24.0,0.,24.0
1979-07-15 10:55:22.530 ,4,1,0.,24.0,2.,24.0,3.,24.0,0.,24.0
1979-07-15 10:55:46.530 ,4,0,0.,24.0,2.,24.0,1.,24.0,0.,24.0
1979-07-15 10:56:10.530 ,3,1,0.,24.0,0.,24.0,4.,24.0,0.,24.0
1979-07-15 10:56:34.530 ,3,0,1.,24.0,0.,24.0,5.,24.0,0.,24.0
1979-07-15 10:56:58.530 ,2,1,1.,24.0,0.,24.0,2.,24.0,0.,24.0
1979-07-15 10:57:22.530 ,2,0,1.,24.0,0.,24.0,0.,24.0,0.,24.0
1979-07-15 10:57:46.530 ,1,1,0.,24.0,0.,24.0,0.,24.0,0.,24.0
1979-07-15 10:58:10.530 ,1,0,0.,24.0,0.,24.0,2.,24.0,0.,24.0
1979-07-15 10:58:34.530 ,0,1,0.,24.0,0.,24.0,5.,24.0,0.,24.0
1979-07-15 10:58:58.530 ,0,0,0.,24.0,0.,24.0,3.,24.0,0.,24.0
1979-07-15 10:59:22.530 ,0,1,0.,24.0,1.,24.0,3.,24.0,0.,24.0
1979-07-15 10:59:46.530 ,0,0,0.,24.0,1.,24.0,0.,24.0,0.,24.0
1979-07-15 11:00:10.530 ,1,1,0.,24.0,0.,24.0,3.,24.0,0.,24.0
1979-07-15 11:00:34.530 ,1,0,1.,24.0,0.,24.0,1.,24.0,0.,24.0
1979-07-15 11:00:58.530 ,2,1,0.,24.0,0.,24.0,3.,24.0,0.,24.0
1979-07-15 11:01:22.530 ,2,0,0.,24.0,0.,24.0,4.,24.0,0.,24.0
1979-07-15 11:01:46.530 ,3,1,0.,24.0,1.,24.0,1.,24.0,0.,24.0
1979-07-15 11:02:10.530 ,3,0,1.,24.0,0.,24.0,3.,24.0,0.,24.0
1979-07-15 11:02:34.530 ,4,1,0.,24.0,0.,24.0,1.,24.0,0.,24.0
1979-07-15 11:02:58.530 ,4,0,0.,24.0,0.,24.0,0.,24.0,0.,24.0
1979-07-15 11:03:22.530 ,5,1,0.,24.0,0.,24.0,2.,24.0,0.,24.0
1979-07-15 11:03:46.530 ,5,0,1.,24.0,0.,24.0,4.,24.0,0.,24.0
1979-07-15 11:04:10.530 ,6,1,0.,24.0,0.,24.0,3.,24.0,0.,24.0
1979-07-15 11:04:34.530 ,6,0,1.,24.0,0.,24.0,1.,24.0,0.,24.0
1979-07-15 11:04:58.530 ,7,1,7.,24.0,0.,24.0,3.,24.0,0.,24.0
1979-07-15 11:05:22.530 ,7,0,24.,24.0,0.,24.0,2.,24.0,0.,24.0
1979-07-15 11:05:46.520 ,7,1,29.,24.0,0.,24.0,3.,24.0,0.,24.0
1979-07-15 11:06:10.520 ,7,0,25.,24.0,0.,24.0,1.,24.0,0.,24.0
1979-07-15 11:06:34.520 ,6,1,33.,24.0,0.,24.0,2.,24.0,0.,24.0
1979-07-15 11:06:58.520 ,6,0,0.,24.0,0.,24.0,4.,24.0,0.,24.0
1979-07-15 11:07:22.520 ,5,1,0.,24.0,0.,24.0,3.,24.0,0.,24.0
1979-07-15 11:07:46.520 ,5,0,0.,24.0,0.,24.0,5.,24.0,0.,24.0
1979-07-15 11:08:10.520 ,4,1,0.,24.0,0.,24.0,2.,24.0,0.,24.0
1979-07-15 11:08:34.520 ,4,0,0.,24.0,0.,24.0,0.,24.0,0.,24.0
1979-07-15 11:08:58.520 ,3,1,0.,24.0,0.,24.0,2.,24.0,0.,24.0
1979-07-15 11:09:22.520 ,3,0,2.,24.0,1.,24.0,2.,24.0,0.,24.0
1979-07-15 11:09:46.520 ,2,1,1.,24.0,0.,24.0,1.,24.0,0.,24.0
1979-07-15 11:10:10.520 ,2,0,0.,24.0,2.,24.0,2.,24.0,0.,24.0
1979-07-15 11:10:34.520 ,1,1,0.,24.0,0.,24.0,3.,24.0,0.,24.0
1979-07-15 11:10:58.520 ,1,0,0.,24.0,0.,24.0,1.,24.0,0.,24.0
1979-07-15 11:11:22.520 ,0,1,0.,24.0,0.,24.0,2.,24.0,0.,24.0
1979-07-15 11:11:46.520 ,0,0,0.,24.0,1.,24.0,3.,24.0,0.,24.0
1979-07-15 11:12:10.520 ,0,1,0.,24.0,0.,24.0,3.,24.0,0.,24.0
1979-07-15 11:12:34.520 ,0,0,1.,24.0,1.,24.0,6.,24.0,0.,24.0
1979-07-15 11:12:58.520 ,1,1,0.,24.0,0.,24.0,5.,24.0,0.,24.0
1979-07-15 11:13:22.520 ,1,0,0.,24.0,0.,24.0,1.,24.0,0.,24.0
1979-07-15 11:13:46.520 ,2,1,0.,24.0,0.,24.0,2.,24.0,0.,24.0
1979-07-15 11:14:10.520 ,2,0,1.,24.0,0.,24.0,1.,24.0,0.,24.0
1979-07-15 11:14:34.520 ,3,1,1.,24.0,0.,24.0,4.,24.0,0.,24.0
1979-07-15 11:14:58.520 ,3,0,0.,24.0,0.,24.0,2.,24.0,0.,24.0
1979-07-15 11:15:22.520 ,4,1,1.,24.0,0.,24.0,2.,24.0,0.,24.0
1979-07-15 11:15:46.520 ,4,0,0.,24.0,1.,24.0,6.,24.0,0.,24.0
1979-07-15 11:16:10.520 ,5,1,0.,24.0,0.,24.0,4.,24.0,0.,24.0
1979-07-15 11:16:34.520 ,5,0,1.,24.0,0.,24.0,5.,24.0,0.,24.0
1979-07-15 11:16:58.520 ,6,1,0.,24.0,0.,24.0,4.,24.0,0.,24.0
1979-07-15 11:17:22.520 ,6,0,1.,24.0,0.,24.0,3.,24.0,0.,24.0
1979-07-15 11:17:46.520 ,7,1,3.,24.0,0.,24.0,2.,24.0,0.,24.0
1979-07-15 11:18:10.520 ,7,0,28.,24.0,0.,24.0,3.,24.0,0.,24.0
1979-07-15 11:18:34.520 ,7,1,25.,24.0,0.,24.0,3.,24.0,0.,24.0
1979-07-15 11:18:58.520 ,7,0,28.,24.0,0.,24.0,2.,24.0,0.,24.0
1979-07-15 11:19:22.520 ,6,1,17.,24.0,0.,24.0,8.,24.0,0.,24.0
1979-07-15 11:19:46.520 ,6,0,0.,24.0,0.,24.0,6.,24.0,0.,24.0
1979-07-15 11:20:10.520 ,5,1,2.,24.0,0.,24.0,3.,24.0,0.,24.0
1979-07-15 11:20:34.520 ,5,0,0.,24.0,0.,24.0,3.,24.0,0.,24.0
1979-07-15 11:20:58.520 ,4,1,1.,24.0,1.,24.0,2.,24.0,0.,24.0
1979-07-15 11:21:46.520 ,3,1,0.,24.0,1.,24.0,3.,24.0,0.,24.0
1979-07-15 11:22:10.520 ,3,0,1.,24.0,0.,24.0,2.,24.0,0.,24.0
1979-07-15 11:22:34.520 ,2,1,2.,24.0,0.,24.0,2.,24.0,0.,24.0
1979-07-15 11:22:58.520 ,2,0,0.,24.0,1.,24.0,6.,24.0,0.,24.0
1979-07-15 11:23:22.520 ,1,1,1.,24.0,1.,24.0,6.,24.0,0.,24.0
1979-07-15 11:23:46.520 ,1,0,0.,24.0,0.,24.0,1.,24.0,0.,24.0
1979-07-15 11:24:10.520 ,0,1,1.,24.0,2.,24.0,2.,24.0,0.,24.0
1979-07-15 11:24:34.520 ,0,0,0.,24.0,0.,24.0,3.,24.0,0.,24.0
1979-07-15 11:24:58.520 ,0,1,0.,24.0,0.,24.0,0.,24.0,0.,24.0
1979-07-15 11:25:22.520 ,0,0,0.,24.0,0.,24.0,6.,24.0,0.,24.0
1979-07-15 11:25:46.520 ,1,1,0.,24.0,0.,24.0,1.,24.0,0.,24.0
1979-07-15 11:26:10.520 ,1,0,0.,24.0,0.,24.0,1.,24.0,0.,24.0
1979-07-15 11:26:34.520 ,2,1,0.,24.0,0.,24.0,4.,24.0,0.,24.0
1979-07-15 11:26:58.520 ,2,0,1.,24.0,0.,24.0,2.,24.0,0.,24.0
1979-07-15 11:27:22.520 ,3,1,2.,24.0,0.,24.0,4.,24.0,0.,24.0
1979-07-15 11:27:46.520 ,3,0,2.,24.0,0.,24.0,1.,24.0,0.,24.0
1979-07-15 11:28:10.520 ,4,1,0.,24.0,0.,24.0,3.,24.0,0.,24.0
1979-07-15 11:28:34.520 ,4,0,0.,24.0,0.,24.0,10.,24.0,0.,24.0
1979-07-15 11:28:58.520 ,5,1,1.,24.0,0.,24.0,5.,24.0,0.,24.0
1979-07-15 11:29:22.520 ,5,0,1.,24.0,0.,24.0,3.,24.0,0.,24.0
1979-07-15 11:29:46.520 ,6,1,1.,24.0,0.,24.0,2.,24.0,0.,24.0
1979-07-15 11:30:10.520 ,6,0,1.,24.0,0.,24.0,4.,24.0,0.,24.0
1979-07-15 11:30:34.520 ,7,0,8.,24.0,0.,24.0,4.,24.0,0.,24.0
1979-07-15 11:30:58.520 ,7,0,26.,24.0,0.,24.0,4.,24.0,0.,24.0
1979-07-15 11:31:22.520 ,5,1,22.,24.0,0.,24.0,0.,24.0,0.,24.0
1979-07-15 11:31:46.520 ,1,1,0.,24.0,0.,24.0,1.,24.0,0.,24.0
1979-07-15 11:32:10.520 ,2,1,1.,24.0,0.,24.0,6.,24.0,0.,24.0
1979-07-15 11:32:34.520 ,6,1,1.,24.0,0.,24.0,4.,24.0,0.,24.0
1979-07-15 11:32:58.520 ,5,1,15.,24.0,0.,24.0,5.,24.0,0.,24.0
1979-07-15 11:33:22.520 ,1,1,0.,24.0,0.,24.0,4.,24.0,0.,24.0
1979-07-15 11:33:46.520 ,2,1,0.,24.0,0.,24.0,1.,24.0,0.,24.0
1979-07-15 11:34:10.520 ,6,1,3.,24.0,0.,24.0,0.,24.0,0.,24.0